Location: Chiroubles
(46.1812°N, 4.6660°E)
Time: 03:38:44
(UTC+00:00)

Cosmos 2084 Rocket - Pass Details

Date: 15 August 2020
Orbit: 548 x 632 km, 62.8° (Epoch: 27 September)

Event Time Altitude Azimuth Distance (km) Brightness Sun altitude
Rises 19:28:25 0° 186° (S) 2,719 6.6 -6.9°
Reaches altitude 10° 19:30:53 10° 173° (S) 1,839 5.7 -7.3°
Maximum altitude 19:34:17 25° 118° (ESE) 1,164 4.4 -7.8°
Drops below altitude 10° 19:37:45 10° 62° (ENE) 1,886 5.7 -8.3°
Sets 19:40:19 0° 50° (NE) 2,806 6.7 -8.7°
